Location: 22
(39.7117°N, 89.5929°W)
Time: 22:16:41
(UTC-06:00)

Vanguard 2 Rocket - Visible Passes

Search period start: 30 November 2023 00:00
Search period end: 10 December 2023 00:00
Orbit: 553 x 3312 km, 32.9° (Epoch: 30 November)

Date Brightness Start Highest point End Pass type
(mag) Time Alt. Az. Time Alt. Az. Time Alt. Az.
30 Nov 9.9 16:32:18 10° WSW 16:52:14 66° SSE 17:08:36 10° E visible
30 Nov 9.2 18:50:03 10° W 19:09:34 66° S 19:16:29 38° SE visible
30 Nov 9.6 21:09:30 10° W 21:22:06 38° SW 21:22:06 38° SW visible
01 Dec 9.6 17:45:37 10° W 18:05:49 70° S 18:18:30 18° ESE visible
01 Dec 9.1 20:04:26 10° W 20:22:05 52° SSW 20:24:09 50° S visible
01 Dec 10.4 22:25:28 10° W 22:29:47 17° WSW 22:29:47 17° WSW visible
02 Dec 9.8 16:41:40 10° WSW 17:01:41 70° S 17:18:23 10° E visible
02 Dec 9.3 18:59:37 10° W 19:19:00 62° SSW 19:26:13 36° SE visible
02 Dec 9.8 21:19:27 10° W 21:31:52 32° SW 21:31:52 32° SW visible
03 Dec 9.6 17:55:10 10° W 18:15:18 68° S 18:28:22 17° ESE visible
03 Dec 9.4 20:14:07 10° W 20:31:12 45° SSW 20:34:02 41° S visible
03 Dec 10.6 22:37:16 10° W 22:39:42 12° WSW 22:39:42 12° WSW visible
04 Dec 9.8 16:51:11 10° W 17:11:10 71° S 17:28:07 10° ESE visible
04 Dec 9.6 19:09:13 10° W 19:28:15 55° SSW 19:36:16 31° SE visible
04 Dec 10.1 21:29:50 10° W 21:41:56 25° SW 21:41:56 25° SW visible
05 Dec 9.7 18:04:46 10° W 18:24:41 64° SSW 18:38:36 15° ESE visible
05 Dec 9.7 20:24:00 10° W 20:40:05 36° SW 20:44:16 32° S visible
06 Dec 9.9 17:00:47 10° W 17:20:36 69° S 17:37:45 10° ESE visible
06 Dec 9.8 19:18:55 10° W 19:37:19 48° SSW 19:46:43 24° SSE visible
06 Dec 10.3 21:41:07 10° W 21:50:46 18° SW 21:52:25 18° SW visible
07 Dec 9.9 18:14:24 10° W 18:33:55 57° SSW 18:49:17 10° SE visible
07 Dec 10.1 20:34:16 10° W 20:48:46 28° SW 20:54:59 22° S visible
08 Dec 10.0 17:10:25 10° W 17:29:58 65° SSW 17:47:13 10° ESE visible
08 Dec 10.2 19:28:47 10° W 19:46:11 39° SW 19:57:43 15° SSE visible
08 Dec 10.6 21:55:09 10° WSW 21:59:14 11° SW 22:02:57 10° SW visible
09 Dec 10.1 18:24:07 10° W 18:42:57 50° SSW 18:58:19 10° SE visible
09 Dec 10.5 20:45:17 10° W 20:57:18 21° SW 21:06:20 11° S visible
